Wind_Speed
22 24 27 29 28 26 26 27 28 29 29 29 30 31 33 34 35 36 36 37 38 40 42 44 47 48 50 52 53 54 55 56 57 57 57 57 58 58 58 58 58 58 59
24 26 28 29 28 28 28 30 32 33 34 35 35 36 38 39 40 40 41 41 43 45 48 50 52 53 55 56 56 57 58 59 58 58 57 56 55 55 54 53 53 54 55
26 28 31 31 31 31 32 34 37 38 40 41 41 41 42 42 43 44 45 46 48 50 53 56 57 58 58 59 60 60 61 60 58 57 55 53 50 47 45 45 47 49 51
28 31 32 33 33 34 35 37 40 42 44 45 45 44 44 45 46 47 48 49 52 55 58 61 61 61 61 61 62 63 62 59 56 54 52 49 46 45 44 43 45 47 49
31 33 34 35 35 36 38 40 43 45 46 47 47 46 46 48 48 48 50 52 55 59 63 65 64 63 63 63 63 61 57 53 50 48 46 44 44 45 47 47 47 49 52
34 36 36 37 37 38 40 43 45 47 49 48 48 47 47 49 49 50 52 55 59 64 67 66 64 63 63 61 57 53 48 44 42 42 43 43 45 47 50 51 51 52 53
37 38 39 39 39 40 42 44 45 48 48 49 48 48 49 50 50 51 54 58 63 66 66 63 62 61 58 53 48 43 40 39 40 41 43 45 48 51 53 54 55 55 55
38 39 39 38 39 40 42 43 45 47 48 48 48 50 50 51 51 52 56 60 63 64 62 60 58 54 50 46 42 40 39 39 41 43 46 49 53 55 57 58 58 57 55
34 35 35 35 36 39 42 45 46 48 49 50 50 52 51 51 51 54 58 61 62 60 58 56 52 49 46 43 41 41 41 42 45 48 51 54 57 60 61 61 61 59 57
35 35 35 36 37 40 43 46 49 51 52 53 54 52 51 50 52 56 58 59 58 56 54 51 49 46 44 43 43 44 45 48 51 54 57 60 61 62 62 61 60 59 57
35 37 38 38 40 42 45 48 51 53 55 55 52 49 49 50 52 55 56 55 54 52 50 48 46 45 44 45 46 49 51 54 57 60 61 63 63 62 60 58 56 55 54
35 36 38 41 43 45 48 51 54 55 54 51 49 47 49 51 53 53 52 52 51 49 48 46 45 45 46 48 51 54 56 59 61 63 63 63 62 59 57 54 52 50 48
39 40 43 45 46 47 49 53 53 51 50 49 48 50 52 51 51 50 50 50 49 47 46 45 46 47 50 52 55 57 59 61 63 64 63 61 58 55 53 50 47 44 41
40 42 44 46 47 47 48 47 47 48 50 52 52 51 50 50 49 49 49 48 47 46 46 47 48 51 53 56 58 59 60 61 62 61 58 55 52 49 46 43 41 38 36
44 45 46 46 47 48 46 47 49 50 50 50 50 50 50 49 49 48 48 47 46 46 47 49 52 55 57 58 59 60 60 59 57 53 50 48 45 42 39 37 34 32 30
47 48 49 50 50 49 49 49 50 49 49 49 49 49 49 48 48 47 46 46 46 48 50 53 55 57 58 58 58 58 56 54 50 46 44 42 39 35 31 28 27 26 24
52 53 53 53 52 50 48 47 47 49 48 47 47 47 46 47 46 46 46 46 48 51 53 54 55 56 56 56 54 53 51 48 44 40 38 35 32 27 23 22 22 22 19
55 55 55 54 51 48 46 47 48 47 45 44 45 45 46 45 45 45 46 48 51 52 53 54 54 54 53 52 50 48 45 41 38 35 32 30 27 23 21 21 20 17 14
53 53 51 49 46 46 45 44 44 44 43 43 44 44 44 44 45 46 48 50 52 53 53 53 52 51 49 47 44 41 38 36 35 33 30 26 23 20 19 17 15 12 9
48 47 45 43 43 41 39 40 40 41 42 43 43 42 42 43 45 47 49 50 51 52 51 51 49 47 44 42 39 36 35 35 33 30 26 22 19 17 15 13 10 8 9
42 40 39 38 36 34 35 36 38 39 40 41 40 40 41 43 45 48 49 49 50 50 49 48 46 43 40 38 36 35 34 32 29 25 21 17 14 11 9 6 6 8 10
35 35 36 33 30 31 33 34 36 37 37 37 37 39 41 43 46 47 47 47 47 46 45 44 42 40 37 35 33 32 30 27 22 18 14 11 7 4 3 5 8 10 12
32 30 27 25 26 29 31 32 33 34 34 34 36 39 41 43 44 44 44 44 43 42 41 40 38 36 33 31 29 27 24 21 18 14 10 6 2 3 6 9 12 13 14
25 23 21 22 24 27 29 30 30 30 31 33 36 39 41 42 42 41 40 40 39 39 37 35 34 31 28 26 24 22 19 17 15 11 7 5 6 9 12 14 15 16 17
17 16 17 20 22 25 26 26 26 27 30 33 36 38 39 39 38 38 37 37 36 35 33 31 29 27 24 22 19 18 16 15 12 10 7 8 11 15 17 17 18 18 19
12 13 15 18 20 21 21 22 23 27 31 34 35 37 37 36 36 35 35 34 33 32 30 28 26 24 21 19 17 17 16 14 13 11 10 12 15 18 19 20 20 19 19
Wind_Direction
284 293 301 306 308 308 311 314 315 316 319 322 325 328 330 332 333 332 332 331 329 327 325 321 317 313 310 306 303 301 299 297 295 293 291 291 289 287 286 285 284 282 281
278 286 294 302 304 307 310 311 311 312 314 317 319 321 323 325 326 326 327 327 327 326 324 321 317 313 310 306 303 301 298 296 294 292 291 290 288 287 286 285 285 285 284
274 282 291 297 301 304 306 309 310 310 312 313 314 314 316 318 320 321 322 323 323 323 322 319 316 312 309 306 303 301 298 295 293 292 292 292 289 287 286 287 288 288 288
273 280 287 292 296 299 302 304 306 307 308 309 308 309 311 313 314 315 317 318 319 319 319 317 315 312 309 306 304 302 299 296 293 292 292 291 289 288 287 289 291 291 291
272 278 285 288 291 294 297 299 301 302 303 304 304 305 307 309 310 311 313 314 315 317 317 316 314 312 310 308 305 302 299 296 294 292 291 290 290 290 291 292 293 294 294
272 276 281 284 288 291 293 294 295 297 298 300 300 301 303 306 307 308 310 312 314 316 316 315 313 311 310 307 305 302 300 297 295 293 292 291 291 292 293 294 295 295 295
273 276 278 282 285 288 289 290 292 295 296 298 299 299 301 303 305 308 310 312 313 314 314 312 311 310 309 307 305 304 302 299 297 295 293 293 293 293 294 294 294 295 294
274 275 277 279 281 284 285 288 291 292 294 296 297 298 300 302 305 308 309 310 311 311 311 311 311 310 309 308 306 305 302 300 297 296 295 294 294 295 295 294 294 293 293
274 275 275 276 278 280 284 287 288 290 293 294 295 297 298 301 304 306 307 309 310 310 311 312 311 310 308 306 305 303 301 299 298 297 296 296 296 295 295 294 293 292 291
271 272 274 277 279 281 284 286 289 291 293 293 293 294 297 301 304 306 307 309 310 311 312 311 309 307 305 304 302 301 300 299 299 298 297 296 296 295 294 293 292 291 291
274 274 277 279 281 282 284 286 289 290 291 291 292 296 301 306 308 308 308 309 310 312 312 310 308 306 304 303 302 302 301 300 299 298 297 296 295 294 293 291 290 289 290
279 280 282 284 285 286 287 290 289 287 288 290 295 302 308 310 310 309 309 310 311 311 310 308 306 305 305 305 304 304 303 302 301 299 298 297 296 294 291 290 289 288 289
283 285 287 290 291 292 294 293 290 290 295 302 308 313 313 312 310 310 311 311 311 310 309 308 307 307 307 307 306 305 304 303 302 301 300 298 296 293 291 289 287 286 286
287 289 291 292 294 296 297 295 294 301 306 310 313 314 312 311 310 311 312 312 311 309 309 309 309 310 309 309 308 307 306 304 304 303 302 300 297 294 291 288 286 285 285
289 290 292 294 296 298 299 299 301 305 309 312 314 313 312 312 312 312 312 311 310 310 311 312 312 312 311 310 309 308 307 307 307 307 306 303 301 297 292 288 285 283 283
287 289 291 293 296 298 298 299 302 306 310 312 313 312 312 313 313 313 312 311 312 314 315 315 314 313 312 311 310 310 310 309 310 310 308 306 304 300 294 289 286 283 280
285 287 289 293 295 296 297 301 305 309 311 311 311 312 313 314 314 313 313 314 315 316 316 315 314 312 312 312 312 312 311 311 311 311 309 308 306 301 295 291 290 285 275
283 285 288 291 293 294 297 301 306 309 310 311 312 314 315 315 314 314 315 316 317 317 316 315 314 314 314 314 314 313 312 312 313 312 310 309 305 299 295 294 290 282 266
279 282 286 289 289 291 295 301 306 307 309 311 314 315 315 315 315 316 317 317 317 316 315 315 316 317 317 317 316 315 315 314 314 312 309 306 302 297 295 292 282 268 237
277 280 282 281 281 287 296 302 304 307 310 313 315 314 314 314 316 317 318 318 317 317 317 318 320 321 320 319 319 318 317 317 316 313 308 304 299 294 292 284 264 234 195
274 274 271 270 279 291 298 301 304 308 312 313 313 313 314 316 318 319 319 318 318 319 321 322 323 324 323 322 322 321 320 320 319 317 312 306 300 294 284 259 214 182 168
265 259 258 268 284 293 297 301 306 310 312 312 312 313 316 319 320 320 320 321 322 324 325 326 327 327 327 326 326 325 325 326 327 327 323 317 308 289 239 186 164 155 151
249 252 263 277 287 293 299 304 308 310 311 311 313 317 320 321 322 322 324 326 327 328 329 330 330 331 331 331 331 331 333 337 340 341 343 346 4 128 142 144 142 142 142
246 259 271 282 290 297 303 307 309 310 311 314 318 321 323 323 325 326 328 330 331 332 333 334 335 336 338 338 340 342 347 351 353 357 10 48 98 120 126 130 132 135 138
253 264 276 288 298 304 307 308 309 311 315 320 323 324 325 326 328 331 333 335 335 336 337 338 341 344 347 348 351 354 356 1 8 24 54 89 112 119 123 126 128 132 136
261 278 292 301 305 307 308 310 313 318 323 326 327 327 328 330 332 334 336 338 340 341 342 345 348 351 354 355 359 2 6 15 28 46 76 104 116 121 124 125 128 133 135
Height
5854 5853 5852 5850 5848 5846 5843 5841 5840 5838 5836 5834 5831 5828 5825 5822 5819 5816 5812 5808 5804 5800 5796 5792 5787 5782 5777 5772 5767 5762 5757 5752 5747 5743 5739 5735 5729 5724 5720 5717 5713 5710 5707
5848 5847 5846 5844 5842 5839 5837 5835 5832 5830 5828 5825 5822 5819 5816 5814 5811 5807 5803 5799 5795 5790 5785 5781 5775 5770 5764 5758 5753 5747 5742 5736 5731 5727 5722 5720 5716 5710 5705 5701 5698 5694 5690
5842 5841 5840 5838 5835 5833 5830 5828 5825 5822 5819 5817 5814 5812 5808 5805 5802 5799 5795 5790 5785 5780 5774 5769 5763 5757 5751 5744 5738 5732 5726 5720 5715 5710 5705 5702 5699 5695 5693 5689 5685 5680 5675
5835 5834 5833 5831 5829 5827 5824 5821 5818 5815 5812 5808 5806 5803 5801 5798 5794 5790 5786 5781 5775 5769 5763 5757 5750 5743 5736 5729 5722 5715 5708 5703 5698 5694 5689 5686 5683 5680 5679 5678 5673 5667 5662
5829 5828 5826 5824 5822 5820 5817 5814 5811 5808 5804 5801 5798 5796 5793 5789 5786 5782 5777 5771 5765 5758 5751 5743 5735 5727 5720 5712 5704 5697 5691 5686 5682 5679 5676 5673 5670 5666 5664 5662 5659 5654 5647
5822 5821 5819 5817 5815 5813 5810 5807 5804 5800 5797 5794 5791 5788 5784 5781 5777 5772 5767 5760 5752 5744 5736 5728 5720 5712 5704 5697 5689 5682 5676 5672 5669 5666 5663 5660 5658 5654 5650 5647 5644 5640 5633
5814 5813 5811 5809 5807 5805 5802 5799 5796 5793 5789 5786 5782 5779 5775 5771 5766 5761 5754 5747 5739 5731 5723 5714 5706 5698 5690 5683 5676 5670 5664 5661 5657 5655 5651 5648 5644 5640 5636 5632 5628 5625 5620
5805 5804 5803 5801 5800 5797 5794 5791 5788 5784 5781 5777 5773 5769 5765 5760 5755 5749 5743 5736 5728 5720 5710 5702 5693 5685 5677 5670 5664 5659 5654 5650 5647 5643 5639 5635 5630 5625 5620 5615 5612 5609 5605
5797 5796 5794 5793 5791 5789 5785 5782 5779 5775 5771 5767 5763 5759 5754 5749 5744 5739 5732 5724 5716 5707 5698 5689 5681 5673 5666 5660 5654 5649 5645 5640 5636 5631 5626 5620 5615 5609 5603 5598 5593 5590 5588
5788 5787 5786 5785 5783 5780 5776 5773 5769 5765 5761 5756 5752 5748 5743 5738 5733 5726 5719 5711 5702 5693 5685 5677 5670 5662 5656 5650 5645 5639 5634 5628 5623 5617 5611 5604 5598 5592 5585 5580 5575 5571 5569
5780 5779 5778 5776 5774 5770 5767 5763 5759 5754 5750 5745 5741 5737 5732 5727 5721 5713 5705 5697 5689 5680 5672 5665 5658 5652 5645 5640 5634 5627 5621 5615 5608 5601 5594 5588 5581 5575 5568 5563 5559 5555 5551
5772 5771 5770 5767 5764 5760 5757 5752 5748 5743 5738 5734 5730 5725 5720 5714 5707 5700 5692 5684 5676 5668 5661 5654 5647 5640 5634 5628 5621 5614 5606 5599 5591 5583 5576 5569 5563 5557 5551 5547 5543 5539 5536
5765 5763 5761 5758 5754 5751 5746 5742 5737 5732 5728 5724 5719 5714 5708 5701 5694 5687 5679 5671 5664 5656 5649 5642 5635 5628 5622 5614 5607 5599 5590 5582 5573 5565 5558 5551 5545 5540 5535 5531 5528 5525 5523
5756 5754 5751 5748 5745 5741 5737 5732 5727 5723 5719 5713 5707 5702 5695 5688 5681 5674 5666 5659 5652 5645 5637 5630 5622 5615 5608 5600 5592 5583 5574 5565 5556 5548 5540 5534 5528 5524 5520 5517 5514 5513 5511
5746 5744 5741 5738 5735 5731 5727 5723 5718 5713 5708 5702 5696 5690 5683 5676 5669 5662 5655 5648 5641 5633 5625 5617 5609 5601 5593 5585 5576 5567 5558 5549 5541 5533 5525 5519 5514 5510 5507 5504 5503 5501 5500
5736 5733 5730 5728 5725 5722 5718 5713 5708 5703 5698 5691 5685 5679 5672 5664 5657 5651 5644 5637 5629 5621 5613 5605 5596 5588 5579 5570 5561 5552 5543 5534 5527 5520 5513 5507 5502 5498 5496 5494 5493 5492 5492
5726 5723 5720 5718 5715 5712 5707 5703 5698 5693 5687 5680 5674 5667 5661 5654 5647 5640 5633 5625 5617 5609 5601 5592 5584 5575 5566 5557 5547 5538 5529 5522 5515 5509 5503 5498 5493 5490 5488 5487 5486 5485 5485
5715 5712 5710 5708 5705 5701 5697 5693 5688 5682 5676 5670 5664 5657 5650 5644 5637 5630 5622 5615 5607 5598 5589 5581 5572 5563 5553 5544 5535 5526 5518 5511 5505 5500 5495 5490 5486 5484 5483 5482 5480 5479 5480
5704 5702 5700 5698 5695 5692 5688 5683 5679 5673 5667 5661 5654 5648 5641 5635 5628 5620 5612 5604 5596 5587 5578 5569 5560 5551 5542 5533 5524 5517 5509 5503 5497 5492 5487 5483 5480 5478 5477 5476 5475 5476 5477
5693 5692 5691 5689 5686 5682 5678 5674 5670 5665 5659 5652 5646 5639 5633 5626 5619 5611 5603 5594 5585 5576 5567 5558 5549 5541 5532 5523 5515 5508 5502 5496 5489 5484 5480 5477 5475 5473 5472 5472 5472 5474 5476
5683 5683 5682 5680 5677 5674 5671 5667 5662 5657 5651 5644 5638 5632 5626 5618 5611 5602 5593 5585 5575 5566 5557 5548 5539 5531 5523 5515 5508 5501 5494 5488 5482 5477 5474 5471 5470 5469 5469 5470 5471 5473 5476
5674 5674 5672 5671 5669 5667 5664 5660 5655 5650 5644 5638 5632 5625 5618 5610 5602 5593 5584 5575 5566 5556 5547 5539 5530 5523 5515 5508 5501 5494 5488 5482 5477 5473 5470 5468 5467 5467 5468 5469 5472 5474 5477
5666 5666 5666 5665 5663 5661 5658 5654 5648 5643 5637 5632 5625 5618 5611 5603 5594 5585 5576 5567 5558 5549 5540 5532 5524 5517 5509 5503 5496 5490 5484 5479 5475 5471 5469 5467 5467 5467 5469 5471 5474 5476 5480
5660 5660 5661 5660 5658 5655 5652 5647 5642 5637 5632 5626 5619 5611 5604 5596 5587 5578 5569 5560 5552 5543 5535 5527 5520 5512 5505 5499 5493 5488 5483 5479 5475 5471 5469 5468 5468 5470 5472 5474 5477 5480 5482
5656 5656 5656 5655 5653 5650 5646 5641 5637 5632 5627 5620 5613 5605 5597 5589 5581 5572 5563 5555 5547 5539 5531 5524 5516 5510 5503 5497 5492 5487 5483 5479 5476 5473 5471 5471 5472 5473 5476 5478 5481 5484 5487
5652 5652 5651 5650 5648 5645 5641 5637 5633 5628 5621 5614 5607 5600 5592 5583 5575 5566 5559 5550 5543 5535 5528 5521 5514 5508 5502 5497 5492 5488 5484 5481 5477 5475 5474 5475 5476 5478 5480 5483 5486 5489 5492